• In France
  • List of Countries
  • For 7 days
  • Water Temperature
  • Satellite Maps
  • Weather Map
  • Weather Widgets
  • user-avatar
    Login

    Hourly Weather Kalat

    Today, 21 July, Saturday

    Time Temperature Precipitation Wind Pressure Humidity
    00:00 +10°C° 0 mm 2 mps 479 mmHg 57%
    01:00 +9°C° 0 mm 2 mps 479 mmHg 58%
    02:00 +9°C° 0 mm 2 mps 478 mmHg 60%
    03:00 +8°C° 0 mm 2 mps 478 mmHg 61%
    04:00 +9°C° 0 mm 1 mps 478 mmHg 62%
    05:00 +9°C° 0 mm 1 mps 477 mmHg 64%
    06:00 +10°C° 0 mm 1 mps 478 mmHg 57%
    07:00 +10°C° 0 mm 2 mps 479 mmHg 51%
    08:00 +12°C° 0 mm 2 mps 480 mmHg 45%
    09:00 +13°C° 0 mm 2 mps 481 mmHg 41%
    10:00 +15°C° 0 mm 2 mps 482 mmHg 37%
    11:00 +16°C° 0 mm 3 mps 482 mmHg 33%
    12:00 +17°C° 0 mm 3 mps 483 mmHg 32%
    13:00 +18°C° 0 mm 3 mps 483 mmHg 31%
    14:00 +19°C° 0 mm 4 mps 483 mmHg 30%
    15:00 +18°C° 0.1 mm 4 mps 483 mmHg 32%
    16:00 +18°C° 0.1 mm 4 mps 483 mmHg 34%
    17:00 +18°C° 0.1 mm 4 mps 482 mmHg 36%
    18:00 +17°C° 0 mm 4 mps 482 mmHg 40%
    19:00 +14°C° 0 mm 3 mps 481 mmHg 43%
    20:00 +13°C° 0 mm 3 mps 480 mmHg 47%
    21:00 +12°C° 0 mm 3 mps 480 mmHg 49%
    22:00 +13°C° 0 mm 2 mps 480 mmHg 52%
    23:00 +12°C° 0 mm 2 mps 480 mmHg 54%

    Tomorrow, 22 July, Sunday

    Time Temperature Precipitation Wind Pressure Humidity
    00:00 +12°C° 0 mm 2 mps 479 mmHg 55%
    01:00 +11°C° 0 mm 1 mps 479 mmHg 56%
    02:00 +11°C° 0 mm 1 mps 478 mmHg 58%
    03:00 +10°C° 0 mm 1 mps 478 mmHg 59%
    04:00 +10°C° 0 mm 1 mps 478 mmHg 60%
    05:00 +10°C° 0 mm 1 mps 477 mmHg 61%
    06:00 +10°C° 0 mm 2 mps 478 mmHg 56%
    07:00 +12°C° 0 mm 2 mps 479 mmHg 51%
    08:00 +13°C° 0 mm 2 mps 480 mmHg 46%
    09:00 +14°C° 0 mm 2 mps 481 mmHg 43%
    10:00 +16°C° 0 mm 2 mps 482 mmHg 40%
    11:00 +17°C° 0 mm 3 mps 482 mmHg 38%
    12:00 +18°C° 0.1 mm 3 mps 482 mmHg 37%
    13:00 +19°C° 0.1 mm 3 mps 483 mmHg 35%
    14:00 +19°C° 0.1 mm 4 mps 483 mmHg 34%
    15:00 +19°C° 0.2 mm 4 mps 482 mmHg 36%
    16:00 +19°C° 0.2 mm 4 mps 482 mmHg 38%
    17:00 +18°C° 0.2 mm 4 mps 482 mmHg 39%
    18:00 +17°C° 0.1 mm 4 mps 481 mmHg 42%
    19:00 +16°C° 0.1 mm 3 mps 481 mmHg 45%
    20:00 +14°C° 0.1 mm 3 mps 480 mmHg 48%
    21:00 +13°C° 0 mm 3 mps 480 mmHg 50%
    22:00 +13°C° 0 mm 2 mps 480 mmHg 52%
    23:00 +13°C° 0 mm 2 mps 480 mmHg 54%

    Day after tomorrow, 23 July, Monday

    Time Temperature Precipitation Wind Pressure Humidity
    00:00 +12°C° 0 mm 2 mps 479 mmHg 55%
    01:00 +12°C° 0 mm 2 mps 479 mmHg 57%
    02:00 +10°C° 0 mm 2 mps 478 mmHg 58%
    03:00 +10°C° 0 mm 2 mps 478 mmHg 59%
    04:00 +9°C° 0 mm 2 mps 478 mmHg 60%
    05:00 +9°C° 0 mm 2 mps 477 mmHg 61%
    06:00 +10°C° 0 mm 2 mps 478 mmHg 57%
    07:00 +12°C° 0 mm 2 mps 479 mmHg 52%
    08:00 +12°C° 0 mm 3 mps 480 mmHg 48%
    09:00 +13°C° 0 mm 3 mps 480 mmHg 44%
    10:00 +16°C° 0 mm 3 mps 481 mmHg 41%
    11:00 +17°C° 0 mm 3 mps 482 mmHg 37%
    12:00 +18°C° 0.1 mm 3 mps 482 mmHg 35%
    13:00 +18°C° 0.1 mm 4 mps 482 mmHg 34%
    14:00 +19°C° 0.1 mm 4 mps 483 mmHg 32%
    15:00 +19°C° 0.1 mm 4 mps 482 mmHg 33%
    16:00 +18°C° 0.1 mm 4 mps 482 mmHg 33%
    17:00 +18°C° 0.1 mm 4 mps 482 mmHg 34%
    18:00 +17°C° 0.1 mm 4 mps 481 mmHg 36%
    19:00 +15°C° 0.1 mm 4 mps 481 mmHg 39%
    20:00 +13°C° 0.1 mm 3 mps 480 mmHg 41%
    21:00 +13°C° 0 mm 3 mps 480 mmHg 43%
    22:00 +13°C° 0 mm 2 mps 480 mmHg 44%
    23:00 +12°C° 0 mm 2 mps 479 mmHg 46%

    24 July, Tuesday

    Time Temperature Precipitation Wind Pressure Humidity
    00:00 +12°C° 0 mm 2 mps 479 mmHg 47%
    01:00 +10°C° 0 mm 2 mps 479 mmHg 49%
    02:00 +10°C° 0 mm 2 mps 478 mmHg 50%
    03:00 +9°C° 0 mm 2 mps 478 mmHg 51%
    04:00 +9°C° 0 mm 2 mps 478 mmHg 52%
    05:00 +8°C° 0 mm 2 mps 477 mmHg 53%
    06:00 +9°C° 0 mm 3 mps 478 mmHg 48%
    07:00 +11°C° 0 mm 3 mps 479 mmHg 42%
    08:00 +12°C° 0 mm 3 mps 480 mmHg 37%
    09:00 +13°C° 0 mm 3 mps 481 mmHg 34%
    10:00 +16°C° 0 mm 3 mps 482 mmHg 31%
    11:00 +17°C° 0 mm 3 mps 483 mmHg 28%
    12:00 +18°C° 0 mm 4 mps 483 mmHg 27%
    13:00 +18°C° 0 mm 4 mps 483 mmHg 26%
    14:00 +19°C° 0 mm 4 mps 483 mmHg 24%
    15:00 +19°C° 0 mm 4 mps 483 mmHg 25%
    16:00 +18°C° 0 mm 4 mps 483 mmHg 26%
    17:00 +17°C° 0 mm 5 mps 483 mmHg 27%
    18:00 +17°C° 0 mm 4 mps 482 mmHg 30%
    19:00 +14°C° 0 mm 4 mps 482 mmHg 33%
    20:00 +13°C° 0 mm 4 mps 481 mmHg 36%
    21:00 +12°C° 0 mm 3 mps 481 mmHg 38%
    22:00 +12°C° 0 mm 3 mps 480 mmHg 40%
    23:00 +11°C° 0 mm 3 mps 480 mmHg 42%

    25 July, Wednesday

    Time Temperature Precipitation Wind Pressure Humidity
    00:00 +10°C° 0 mm 3 mps 480 mmHg 44%
    01:00 +9°C° 0 mm 3 mps 479 mmHg 45%
    02:00 +9°C° 0 mm 3 mps 479 mmHg 47%
    03:00 +8°C° 0 mm 3 mps 478 mmHg 49%
    04:00 +8°C° 0 mm 3 mps 478 mmHg 50%
    05:00 +7°C° 0 mm 3 mps 477 mmHg 51%
    06:00 +9°C° 0 mm 3 mps 478 mmHg 46%
    07:00 +10°C° 0 mm 3 mps 479 mmHg 41%
    08:00 +11°C° 0 mm 3 mps 480 mmHg 36%
    09:00 +12°C° 0 mm 3 mps 481 mmHg 32%
    10:00 +14°C° 0 mm 3 mps 482 mmHg 28%
    11:00 +15°C° 0 mm 4 mps 482 mmHg 24%
    12:00 +17°C° 0 mm 4 mps 483 mmHg 24%
    13:00 +18°C° 0 mm 4 mps 483 mmHg 24%
    14:00 +18°C° 0 mm 4 mps 483 mmHg 24%
    15:00 +18°C° 0 mm 4 mps 483 mmHg 26%
    16:00 +18°C° 0 mm 4 mps 482 mmHg 28%
    17:00 +16°C° 0 mm 5 mps 482 mmHg 30%
    18:00 +15°C° 0 mm 4 mps 481 mmHg 33%
    19:00 +13°C° 0 mm 4 mps 481 mmHg 37%
    20:00 +12°C° 0 mm 4 mps 480 mmHg 41%
    21:00 +11°C° 0 mm 3 mps 480 mmHg 43%
    22:00 +10°C° 0 mm 3 mps 480 mmHg 45%
    23:00 +10°C° 0 mm 3 mps 479 mmHg 47%

    26 July, Thursday

    Time Temperature Precipitation Wind Pressure Humidity
    00:00 +9°C° 0 mm 3 mps 479 mmHg 49%
    01:00 +8°C° 0 mm 3 mps 478 mmHg 51%
    02:00 +8°C° 0 mm 3 mps 478 mmHg 52%
    03:00 +7°C° 0 mm 3 mps 477 mmHg 53%
    04:00 +7°C° 0 mm 3 mps 477 mmHg 54%
    05:00 +5°C° 0 mm 3 mps 477 mmHg 55%
    06:00 +7°C° 0 mm 3 mps 478 mmHg 47%
    07:00 +9°C° 0 mm 3 mps 478 mmHg 39%
    08:00 +10°C° 0 mm 4 mps 479 mmHg 32%
    09:00 +11°C° 0 mm 4 mps 480 mmHg 29%
    10:00 +12°C° 0 mm 4 mps 481 mmHg 26%
    11:00 +14°C° 0 mm 4 mps 482 mmHg 22%
    12:00 +15°C° 0 mm 4 mps 482 mmHg 22%
    13:00 +15°C° 0 mm 4 mps 482 mmHg 22%
    14:00 +17°C° 0 mm 4 mps 482 mmHg 22%
    15:00 +15°C° 0 mm 4 mps 482 mmHg 24%
    16:00 +15°C° 0 mm 4 mps 482 mmHg 25%
    17:00 +15°C° 0 mm 4 mps 481 mmHg 27%
    18:00 +13°C° 0 mm 4 mps 481 mmHg 30%
    19:00 +12°C° 0 mm 4 mps 480 mmHg 33%
    20:00 +11°C° 0 mm 3 mps 480 mmHg 37%
    21:00 +10°C° 0 mm 3 mps 479 mmHg 39%
    22:00 +9°C° 0 mm 3 mps 479 mmHg 41%
    23:00 +8°C° 0 mm 3 mps 479 mmHg 43%
    Show more